[[{"header":{"parameterUnit":"m.s-1","parameterCategory":1,"la1":30.2991,"la2":30.254,"lo1":-89.0895,"lo2":-89.0444,"dy":0.0017,"dx":0.0017,"nx":28,"ny":28,"refTime":"2025-08-14T09:00:00:Z","depth":0,"parameterNumber":2,"parameterNumberName":"U-component_of_WINDS"},"data":[0,0,0,0,0,0,0,0,0,0,0,0,0,0,0,0,0,0,0,0,0,0,0,0,0,0,0,0,0,0,0,0,0,0,0,0,0,0,0,0,0,0,0,0,0,0,0,0,0,0,0,0,0,0,0,0,0,0,3.8625,3.8626,0,3.874,3.8742,3.8743,3.8664,3.866,3.8657,3.8654,3.8774,3.878,3.8787,0,0,0,0,0,0,0,0,0,0,0,0,0,3.8338,3.8344,3.8625,3.8627,3.8628,3.874,3.8742,3.8743,3.8665,3.866,3.8656,3.8652,3.8772,3.878,3.8787,0,0,0,0,0,0,0,0,0,0,0,0,0,3.8459,3.8345,3.8625,3.8602,3.8601,3.874,3.8742,3.8744,3.8666,3.866,3.8655,3.865,3.8769,3.8779,3.8789,3.8957,0,0,3.8819,3.8823,0,0,0,0,0,0,0,0,3.8452,3.847,3.8604,3.8604,3.8603,3.8682,3.8685,3.8815,3.8667,3.8641,3.8653,3.8647,3.8748,3.8759,3.8793,3.8962,3.8967,3.8819,3.8825,3.883,3.8832,0,0,0,0,0,0,0,3.8444,3.8464,3.8671,3.8606,3.8606,3.8587,3.8598,3.8709,3.8723,3.8643,3.8638,3.8652,3.8747,3.8783,3.8795,3.8969,3.8819,3.8828,3.8834,3.8838,3.9279,3.9285,0,0,0,0,0,0,3.8437,3.8458,3.8667,3.8674,3.8513,3.8596,3.8609,3.8662,3.8722,3.8726,3.8657,3.8648,3.8769,3.8784,3.8799,3.8997,3.883,3.8839,3.8844,3.9274,3.9281,3.9287,0,0,0,0,0,0,3.8431,3.8457,3.8662,3.8565,3.8589,3.8607,3.8668,3.8668,3.8704,3.8732,3.8735,3.8691,3.8766,3.8785,3.8917,3.9,3.8843,3.8852,3.9267,3.9276,3.9284,3.9396,0,0,0,0,0,0,3.8424,3.8455,3.8519,3.8567,3.8595,3.8779,3.8673,3.8674,3.8721,3.8711,3.8765,3.8769,3.8763,3.8903,3.8927,3.9011,3.886,3.9259,3.9271,3.9281,3.9385,3.9408,3.9427,0,0,0,0,0,3.8414,3.8547,3.8523,3.8548,3.8675,3.8784,3.88,3.8789,3.8728,3.8792,3.881,3.8768,3.8988,3.8917,3.8943,3.9032,3.9254,3.9267,3.928,3.9376,3.9403,3.9427,0,0,0,0,0,0,3.851,3.8553,3.8526,3.8679,3.8728,3.877,3.8851,3.8819,3.8887,3.8875,3.8859,3.8873,3.901,3.9034,3.8955,3.9196,3.9111,3.913,3.9175,3.9201,3.9222,3.9212,3.8868,0,0,0,0,0,3.8549,3.8633,3.8667,3.8798,3.8824,3.8834,3.8881,3.8868,3.8918,3.8939,3.8966,3.9018,3.9098,3.9151,3.9227,3.9389,3.9398,3.9463,3.9483,3.9501,3.9517,3.9601,3.9629,3.933,3.933,3.933,0,0,3.8631,3.8664,3.8719,3.8818,3.8855,3.8942,3.8852,3.8949,3.9013,3.8954,3.9079,3.9101,3.9157,3.9304,3.9371,3.9329,3.9602,3.9517,3.9531,3.9537,3.9618,3.9646,3.9671,3.9339,3.9337,3.9336,0,0,3.8823,3.8858,3.897,3.9008,3.9064,3.9069,3.9096,3.9143,3.9155,3.928,3.9237,3.9314,3.9454,3.9494,3.9533,3.974,3.9703,3.9766,3.9874,3.9957,3.9981,4.0002,4.0073,4.0099,3.9782,3.9782,3.9782,0,3.8917,3.9047,3.9032,3.9131,3.9176,3.9126,3.9238,3.9277,3.9355,3.9387,3.9339,3.9511,3.9546,3.97,3.975,3.9785,3.9814,3.9758,3.9979,3.9999,4.0018,4.0086,4.0113,3.9789,3.9788,3.9788,3.9787,0,3.9158,3.9249,3.9333,3.9408,3.9462,3.9568,3.9569,3.9626,3.9609,3.9619,3.9747,3.9786,3.9867,3.9904,3.9889,4.0056,4.0028,3.998,3.9894,4.0054,4.0117,4.0144,3.9799,3.9797,3.9795,3.9793,0,0,3.9414,3.9479,3.951,3.9542,3.96,3.9669,3.9773,3.9851,3.9899,3.9955,4.004,4.0159,4.0114,4.0159,4.0148,4.0221,4.0379,4.0164,4.0165,4.02,4.0563,4.0597,4.0627,4.0356,4.0361,4.0364,4.0557,0,3.9608,3.9786,3.9776,3.9944,4.0026,3.9979,4.0069,4.0114,4.0126,4.0198,4.0212,4.0295,4.0231,4.0257,4.0328,4.0345,4.0451,4.0331,4.0434,4.0437,4.0418,4.0661,4.0697,4.0877,4.0582,4.0587,4.059,0,3.9857,3.9919,4.0095,4.0138,4.0172,4.0253,4.0323,4.0393,4.0443,4.0446,4.0495,4.0472,4.0576,4.0489,4.0631,4.0549,4.0591,4.0606,4.0612,4.062,4.0521,4.0672,4.0935,4.0961,4.0629,4.0626,4.0623,0,4.0022,4.0151,4.0271,4.0301,4.0356,4.0413,4.0438,4.0483,4.053,4.0592,4.0622,4.0696,4.0736,4.0794,4.0791,4.0728,4.0934,4.0848,4.0939,4.0939,4.0983,4.098,4.1254,4.1014,4.1014,4.1014,4.1013,0,4.0238,4.0347,4.0346,4.042,4.054,4.0528,4.0647,4.0666,4.0706,4.0783,4.0748,4.0821,4.0814,4.0888,4.0886,4.1003,4.1022,4.1027,4.1025,4.1029,4.1028,4.1054,4.1041,4.1021,4.1019,4.1018,4.1016,0,4.0442,4.0446,4.0575,4.0615,4.0628,4.0714,4.0749,4.0819,4.0828,4.0925,4.0948,4.0962,4.1047,4.105,4.1148,4.1147,4.1288,4.1274,4.1271,4.1267,4.1357,4.1348,4.1656,4.1694,4.1432,4.1435,4.1437,0,4.0578,4.066,4.0709,4.0757,4.0785,4.0865,4.0912,4.0903,4.0954,4.1016,4.1078,4.1159,4.1223,4.1361,4.138,4.1455,4.144,4.1543,4.1451,4.1451,4.1438,4.1432,4.1439,4.156,4.1563,4.1565,4.1567,0,4.0818,4.0815,4.0885,4.0955,4.1012,4.1068,4.1119,4.116,4.1157,4.1216,4.1301,4.1351,4.145,4.153,4.1602,4.1628,4.1597,4.1596,4.162,4.1624,4.1618,4.162,4.1317,4.1588,4.1586,4.1585,4.1584,4.1583,4.099,4.106,4.1104,4.1182,4.1219,4.1268,4.1335,4.1352,4.1422,4.1501,4.1492,4.1586,4.1633,4.1726,4.1758,4.1832,4.1796,4.1833,4.1841,4.185,4.1858,4.1608,4.1845,4.1844,4.1844,4.1843,4.1843,0,4.1225,4.1251,4.1324,4.1395,4.1456,4.1421,4.1475,4.1529,4.1612,4.1658,4.1721,4.1818,4.1896,4.1921,4.1996,4.205,4.2038,4.207,4.2065,4.2071,4.1887,4.1857,4.2079,4.2079,4.2079,4.2079,4.2079,4.2079,4.1355,4.147,4.1473,4.1606,4.1632,4.1723,4.1757,4.1801,4.1837,4.1946,4.201,4.2026,4.2063,4.214,4.221,4.2215,4.2243,4.2281,4.2281,4.2108,4.2084,4.2061,4.2033,4.2288,4.2289,4.2458,4.2459,4.2461]},{"header":{"parameterUnit":"m.s-1","parameterCategory":1,"la1":30.2991,"la2":30.254,"lo1":-89.0895,"lo2":-89.0444,"dy":0.0017,"dx":0.0017,"nx":28,"ny":28,"refTime":"2025-08-14T09:00:00:Z","depth":0,"parameterNumber":3,"parameterNumberName":"V-component_of_WINDS"},"data":[0,0,0,0,0,0,0,0,0,0,0,0,0,0,0,0,0,0,0,0,0,0,0,0,0,0,0,0,0,0,0,0,0,0,0,0,0,0,0,0,0,0,0,0,0,0,0,0,0,0,0,0,0,0,0,0,0,0,2.8368,2.8368,0,2.8442,2.8443,2.8444,2.8421,2.8419,2.8417,2.8416,2.8489,2.8493,2.8496,0,0,0,0,0,0,0,0,0,0,0,0,0,2.8202,2.8205,2.8368,2.8369,2.8369,2.8442,2.8443,2.8444,2.8421,2.8419,2.8417,2.8415,2.8488,2.8492,2.8496,0,0,0,0,0,0,0,0,0,0,0,0,0,2.8275,2.8206,2.8367,2.8367,2.8367,2.8442,2.8443,2.8444,2.8421,2.8419,2.8417,2.8414,2.8487,2.8492,2.8497,2.8576,0,0,2.8513,2.8515,0,0,0,0,0,0,0,0,2.8271,2.8281,2.8366,2.8367,2.8368,2.842,2.8411,2.8488,2.8422,2.8401,2.8416,2.8413,2.8468,2.8475,2.8494,2.8579,2.8582,2.8513,2.8516,2.8519,2.852,0,0,0,0,0,0,0,2.8266,2.8277,2.8397,2.8367,2.8368,2.8361,2.8369,2.8426,2.8447,2.8402,2.8401,2.841,2.8468,2.8489,2.8495,2.8584,2.8513,2.8518,2.8521,2.8523,2.8736,2.8738,0,0,0,0,0,0,2.826,2.8273,2.8395,2.8399,2.8312,2.8366,2.8375,2.8405,2.8446,2.845,2.8412,2.8409,2.8481,2.8489,2.8498,2.8591,2.8518,2.8523,2.8526,2.8733,2.8736,2.8739,0,0,0,0,0,0,2.8257,2.8271,2.8392,2.8336,2.8351,2.8372,2.8406,2.8408,2.8429,2.8453,2.8456,2.843,2.848,2.849,2.8556,2.8594,2.8526,2.853,2.873,2.8734,2.8738,2.878,0,0,0,0,0,0,2.8252,2.827,2.8301,2.8337,2.8354,2.845,2.8408,2.8411,2.8438,2.8434,2.8471,2.8474,2.8479,2.8549,2.8561,2.8599,2.8534,2.8727,2.8732,2.8736,2.8776,2.8785,2.8793,0,0,0,0,0,2.8246,2.831,2.8303,2.8318,2.8393,2.8453,2.8462,2.8467,2.8441,2.8472,2.8487,2.8473,2.8588,2.8556,2.857,2.861,2.8724,2.873,2.8736,2.8772,2.8783,2.8793,0,0,0,0,0,0,2.8278,2.8315,2.8307,2.8385,2.8416,2.8449,2.8488,2.8479,2.8517,2.8512,2.8515,2.8523,2.8591,2.8607,2.8571,2.8687,2.8652,2.8661,2.8674,2.8686,2.8694,2.8688,2.8539,0,0,0,0,0,2.8294,2.834,2.837,2.8435,2.8451,2.8467,2.8493,2.8493,2.8525,2.8538,2.8558,2.8589,2.8631,2.8659,2.87,2.8778,2.8784,2.8812,2.8821,2.8828,2.8835,2.8876,2.8888,2.8758,2.8758,2.8758,0,0,2.8328,2.8353,2.8382,2.8442,2.8466,2.8512,2.8478,2.8529,2.8563,2.8545,2.8609,2.8625,2.8659,2.8731,2.8763,2.8746,2.8873,2.8835,2.8841,2.8844,2.8883,2.8896,2.8907,2.8762,2.8761,2.8761,0,0,2.8412,2.8437,2.8494,2.8518,2.8555,2.8565,2.8579,2.8613,2.8623,2.8687,2.8674,2.8714,2.8788,2.8812,2.8834,2.8927,2.8915,2.894,2.8986,2.9025,2.9036,2.9045,2.9077,2.9088,2.8948,2.8948,2.8948,0,2.8449,2.8519,2.8523,2.8575,2.8601,2.8588,2.8644,2.8668,2.8716,2.8734,2.8714,2.8806,2.8828,2.8904,2.8927,2.8946,2.896,2.8936,2.9034,2.9043,2.9052,2.9082,2.9094,2.895,2.895,2.895,2.895,0,2.8562,2.8611,2.8652,2.8699,2.873,2.8783,2.8794,2.8825,2.8822,2.8834,2.8898,2.8924,2.8969,2.8987,2.8986,2.9063,2.9052,2.9033,2.8998,2.9067,2.9095,2.9107,2.8954,2.8953,2.8953,2.8952,0,0,2.8669,2.8717,2.8732,2.8753,2.8792,2.8829,2.8882,2.8927,2.8952,2.8985,2.9028,2.909,2.9073,2.9098,2.9099,2.9134,2.9204,2.9111,2.9112,2.9126,2.9289,2.9302,2.9316,2.9196,2.9198,2.92,2.9286,0,2.8756,2.8849,2.8854,2.8938,2.8982,2.897,2.9015,2.9044,2.9055,2.9094,2.9106,2.915,2.9125,2.914,2.9174,2.9188,2.9236,2.9182,2.9235,2.9237,2.9226,2.9331,2.9345,2.9425,2.9297,2.9299,2.9301,0,2.887,2.8907,2.8996,2.9028,2.9046,2.9087,2.9128,2.9165,2.9196,2.9202,2.923,2.9225,2.9277,2.9241,2.9311,2.9274,2.9296,2.9306,2.9309,2.9314,2.9272,2.9337,2.9451,2.9462,2.9318,2.9317,2.9316,0,2.8937,2.9009,2.9071,2.909,2.9129,2.9158,2.9175,2.9204,2.923,2.9265,2.9282,2.9323,2.9345,2.9375,2.9381,2.9354,2.9452,2.9416,2.9457,2.9457,2.9478,2.9476,2.9595,2.9493,2.9493,2.9493,2.9493,0,2.9033,2.9088,2.9102,2.914,2.92,2.9205,2.9264,2.9279,2.9305,2.9344,2.9336,2.9373,2.9379,2.9417,2.9422,2.9479,2.9489,2.9495,2.9495,2.9495,2.9494,2.9509,2.9503,2.9496,2.9495,2.9495,2.9494,0,2.9119,2.9131,2.9197,2.9229,2.9238,2.9281,2.9307,2.9343,2.9353,2.9404,2.9416,2.9432,2.9477,2.9486,2.9538,2.9541,2.9609,2.9604,2.9599,2.9598,2.9638,2.9634,2.977,2.9788,2.9675,2.9676,2.9677,0,2.9179,2.922,2.9256,2.9283,2.9301,2.9344,2.9371,2.9376,2.9404,2.9442,2.9473,2.9517,2.9552,2.9623,2.9639,2.9679,2.9674,2.9719,2.968,2.9678,2.9673,2.967,2.9674,2.9726,2.9728,2.9729,2.9729,0,2.9284,2.9287,2.9327,2.9368,2.94,2.9432,2.9463,2.9485,2.9494,2.9526,2.9571,2.9599,2.9652,2.9695,2.9735,2.9751,2.9741,2.9742,2.9753,2.9753,2.9748,2.975,2.9618,2.9738,2.9737,2.9737,2.9736,2.9736,2.9357,2.9393,2.9424,2.9467,2.9491,2.952,2.9555,2.957,2.9608,2.9653,2.9653,2.9703,2.9731,2.9784,2.9803,2.984,2.9826,2.9843,2.9847,2.9851,2.9854,2.9742,2.9848,2.9847,2.9847,2.9847,2.9847,0,2.9461,2.948,2.952,2.9563,2.9597,2.9586,2.9619,2.9648,2.9692,2.972,2.9755,2.9806,2.9848,2.9867,2.9907,2.9934,2.993,2.9944,2.9942,2.9945,2.9865,2.9851,2.9946,2.9946,2.9946,2.9946,2.9946,2.9946,2.9519,2.9578,2.9585,2.9656,2.9674,2.9724,2.9743,2.9769,2.9791,2.985,2.9884,2.9897,2.9921,2.9963,2.9999,3.0004,3.0018,3.0034,3.0036,2.9961,2.9951,2.9941,2.9928,3.0038,3.0038,3.0113,3.0114,3.0114]}]]